Terminal Aerodrome Forecast
Issued by NWS

Home | Current Version | Previous Version | Text Only | Print | Product List | Glossary On
Versions: 1 2 3 4 5 6 7 8 9 10 11 12 13 14 15 16 17 18 19 20 21 22 23 24 25 26 27 28 29 30 31 32 33 34 35 36 37 38 39 40 41 42 43 44 45 46 47 48 49 50
000
FTUS41 KCTP 190539
TAFAOO
TAF
KAOO 190539Z 1906/2006 07002KT P6SM SCT025 BKN045
     FM191400 13006KT P6SM BKN045
     FM200400 12006KT P6SM BKN028 BKN045=

USA.gov is the U.S. government's official web portal to all federal, state and local government web resources and services.